Printer-friendly version

IAU Minor Planet Center

Minor Planet Center

MPEC 2008-S79 : 2008 SH82

The following Minor Planet Electronic Circular may be linked-to from your own Web pages, but must not otherwise be redistributed electronically.


Read MPEC 2008-S78 Read MPEC 2008-S80


M.P.E.C. 2008-S79                                Issued 2008 Sept. 27, 16:31 UT

     The Minor Planet Electronic Circulars contain information on unusual
         minor planets and routine data on comets.  They are published
   on behalf of Commission 20 of the International Astronomical Union by the
          Minor Planet Center, Smithsonian Astrophysical Observatory,
                          Cambridge, MA 02138, U.S.A.

             Prepared using the Tamkin Foundation Computer Network

                              MPC@CFA.HARVARD.EDU
          URL http://www.cfa.harvard.edu/iau/mpc.html  ISSN 1523-6714

                                   2008 SH82

Observations:
     K08S82H* C2008 09 26.21299 21 58 45.98 +05 04 54.4          20.6 V ES079G96
     K08S82H  C2008 09 26.21962 21 58 45.26 +05 04 54.0          20.6 V ES079G96
     K08S82H  C2008 09 26.22626 21 58 44.58 +05 04 53.2          20.5 V ES079G96
     K08S82H  C2008 09 26.23279 21 58 43.93 +05 04 52.2          20.9 V ES079G96
     K08S82H  C2008 09 26.87838 21 57 42.99 +05 03 26.5                 ES079J95
     K08S82H IC2008 09 26.89252 21 57 41.61 +05 03 25.1                 ES079J95
     K08S82H IC2008 09 26.90396 21 57 40.41 +05 03 24.4          20.8 R ES079J95
     K08S82H  C2008 09 27.21660 21 57 10.85 +05 02 51.1          20.5 V ES079G96
     K08S82H  C2008 09 27.22425 21 57 10.10 +05 02 50.3          21.0 V ES079G96
     K08S82H  C2008 09 27.23947 21 57 08.49 +05 02 48.3          20.1 V ES079G96

Observer details:
G96 Mt. Lemmon Survey.  Observer S. M. Larson.  Measurers E. C. Beshore,
    A. Boattini, G. J. Garradd, A. R. Gibbs, A. D. Grauer, R. E. Hill,
    R. A. Kowalski, S. M. Larson, R. H. McNaught.  1.5-m reflector + CCD.
J95 Great Shefford.  Observer P. Birtwhistle.  0.40-m f/6.0 Schmidt-Cassegrain
    + CCD.

Orbital elements:
2008 SH82                                           PHA, Earth MOID = 0.0225 AU
Epoch 2008 Nov. 30.0 TT = JDT 2454800.5                 MPC
M 359.15815              (2000.0)            P               Q
n   0.27027559     Peri.  160.04828     +0.41433147     -0.90701596
a   2.3691806      Node   265.41350     +0.82445378     +0.40903297
e   0.5786925      Incl.    4.32523     +0.38549370     +0.10007033
P   3.65           H   21.2           G   0.15           U   8
Residuals in seconds of arc
080926 G96  0.5+  0.3-    080926 J95  0.1+  0.6-    080927 G96  0.8+  0.0
080926 G96  0.1+  0.1+    080926 J95  0.8+  0.3-    080927 G96  0.2+  0.0
080926 G96  0.2+  0.1+    080926 J95  0.2+  0.4+
080926 G96  0.7+  0.2-    080927 G96  0.3+  0.1-

Ephemeris:
2008 SH82                a,e,i = 2.37, 0.58, 4                   q = 0.9982
Date    TT    R. A. (2000) Decl.     Delta      r     Elong.  Phase     V
2008 09 21    22 07.23   +05 13.1    0.375    1.349   152.8    19.9    20.7
2008 10 01    21 51.44   +04 54.2    0.331    1.275   140.5    30.0    20.6
2008 10 11    21 38.94   +04 27.0    0.296    1.205   128.4    40.5    20.6
2008 10 21    21 31.85   +04 04.3    0.264    1.141   117.4    50.8    20.5
2008 10 31    21 31.37   +03 56.8    0.231    1.086   107.8    60.5    20.4
2008 11 10    21 38.49   +04 14.5    0.196    1.042   100.1    69.3    20.2
2008 11 20    21 54.94   +05 06.0    0.157    1.013    94.6    76.5    19.9
2008 11 30    22 27.37   +06 50.1    0.115    0.999    93.1    80.3    19.3
2008 12 10    23 40.28   +10 20.4    0.0756   1.002   101.2    74.5    18.2
2008 12 20    02 37.48   +14 22.9    0.0550   1.022   133.1    44.6    16.7
2008 12 30    05 38.29   +10 53.4    0.0779   1.057   161.4    17.3    16.7
2009 01 09    06 51.57   +08 05.0    0.127    1.106   164.3    14.0    17.7
2009 01 19    07 22.93   +07 19.9    0.187    1.164   163.6    13.8    18.7
2009 01 29    07 40.15   +07 31.3    0.257    1.230   160.8    15.2    19.5
2009 02 08    07 52.51   +08 04.1    0.338    1.302   155.9    18.0    20.4
2009 02 18    08 03.48   +08 40.5    0.431    1.378   149.8    21.2    21.1
2009 02 28    08 14.50   +09 11.6    0.536    1.455   143.1    24.1    21.8

Timothy B. Spahr             (C) Copyright 2008 MPC           M.P.E.C. 2008-S79

Read MPEC 2008-S78 Read MPEC 2008-S80


Our Web policy. Index to the CBAT/MPC/ICQ pages.


Valid HTML 4.01!